Mount Shasta, CA

7:04 AM PDT on April 23, 2018 (GMT -0700)
Mount Shasta

Weather History for KMHS - August, 2014

Change the Weather History Date:

Wednesday, August 27, 2014

  Actual Average Record
Temperature  
Mean Temperature 71 °F 65 °F  
Max Temperature 92 °F 83 °F 97 °F (1931)
Min Temperature 49 °F 46 °F 35 °F (1928)
Degree Days  
Heating Degree Days 0 2  
Month to date heating degree days 1 34  
Since 1 June heating degree days 58 209  
Since 1 July heating degree days 2 67  
Cooling Degree Days 6 2  
Month to date cooling degree days 129 83  
Year to date cooling degree days 486 251  
Since 1 June cooling degree days 477 243  
Growing Degree Days 21 (Base 50)    
Moisture  
Dew Point 46 °F    
Average Humidity 43    
Maximum Humidity 68    
Minimum Humidity 21    
Precipitation  
Precipitation 0.00 in 0.01 in 1.09 in (1954)
Month to date precipitation 0.21 0.28  
Year to date precipitation 12.28 27.27  
Sea Level Pressure  
Sea Level Pressure 30.09 in    
Wind  
Wind Speed 1 mph (NE)    
Max Wind Speed 6 mph    
Max Gust Speed 13 mph    
Visibility 9 miles    
Events      
T = Trace of Precipitation, MM = Missing Value Source: NWS Daily Summary

Daily Weather History Graph

Daily Weather History Graph

Search for Another Location

Airport or City:

Astronomy

Aug. 27, 2014 Rise Set
Actual Time 6:30 AM PDT 7:50 PM PDT
Civil Twilight 6:01 AM PDT 8:18 PM PDT
Nautical Twilight 5:27 AM PDT 8:53 PM PDT
Astronomical Twilight 4:51 AM PDT 9:29 PM PDT
Moon 8:33 AM PDT (8/27) 8:43 PM PDT (8/27)
Length of Visible Light 14h 16m
Length of Day
13h 19m
Waxing Crescent, 4% of the Moon is Illuminated
Aug 27
Waxing Crescent
Sep 2
First Quarter
Sep 8
Full
Sep 15
Last Quarter
Sep 23
New

Hourly Weather History & Observations

Time (PDT) Temp. Dew Point Humidity Pressure Visibility Wind Dir Wind Speed Gust Speed Precip Events Conditions
12:56 AM 60.1 °F 39.0 °F 46% 30.06 in 10.0 mi Calm Calm - N/A   Clear
1:56 AM 57.9 °F 37.9 °F 47% 30.07 in 10.0 mi Calm Calm - N/A   Clear
2:56 AM 55.9 °F 39.0 °F 53% 30.09 in 10.0 mi Calm Calm - N/A   Clear
3:56 AM 54.0 °F 39.0 °F 57% 30.09 in 10.0 mi NE 3.5 mph - N/A   Clear
4:56 AM 52.0 °F 39.0 °F 61% 30.10 in 10.0 mi Calm Calm - N/A   Clear
5:56 AM 52.0 °F 41.0 °F 66% 30.11 in 10.0 mi Calm Calm - N/A   Clear
6:56 AM 51.1 °F 41.0 °F 68% 30.14 in 10.0 mi ENE 3.5 mph - N/A   Clear
7:56 AM 59.0 °F 44.1 °F 58% 30.15 in 10.0 mi Calm Calm - N/A   Clear
8:56 AM 66.0 °F 46.9 °F 50% 30.15 in 10.0 mi Calm Calm - N/A   Clear
9:56 AM 75.0 °F 51.1 °F 43% 30.13 in 10.0 mi Calm Calm - N/A   Clear
10:56 AM 79.0 °F 51.1 °F 38% 30.13 in 10.0 mi Calm Calm - N/A   Clear
11:56 AM 82.9 °F 50.0 °F 32% 30.12 in 10.0 mi Calm Calm - N/A   Clear
12:56 PM 86.0 °F 51.1 °F 30% 30.10 in 10.0 mi Calm Calm - N/A   Clear
1:56 PM 89.1 °F 48.9 °F 25% 30.08 in 10.0 mi Calm Calm - N/A   Clear
2:56 PM 91.0 °F 46.0 °F 21% 30.06 in 10.0 mi Calm Calm - N/A   Clear
3:56 PM 91.0 °F 46.9 °F 22% 30.05 in 10.0 mi Calm Calm - N/A   Clear
4:56 PM 88.0 °F 48.9 °F 26% 30.05 in 10.0 mi Calm Calm - N/A   Clear
5:56 PM 86.0 °F 50.0 °F 29% 30.05 in 10.0 mi Calm Calm - N/A   Clear
6:56 PM 81.0 °F 48.0 °F 31% 30.06 in 10.0 mi Calm Calm - N/A   Clear
7:56 PM 73.0 °F 51.1 °F 46% 30.08 in 10.0 mi Calm Calm - N/A   Overcast
8:56 PM 69.1 °F 48.9 °F 49% 30.09 in 10.0 mi Calm Calm - N/A   Overcast
9:56 PM 68.0 °F 46.0 °F 45% 30.09 in 6.0 mi ENE 3.5 mph - N/A   Haze
10:56 PM 64.9 °F 44.1 °F 47% 30.10 in 4.0 mi Calm Calm - N/A   Haze
11:56 PM 62.1 °F 44.1 °F 52% 30.11 in 4.0 mi NE 4.6 mph - N/A   Haze